Theta_e
327 322 317 316 316 317 315 314 300 308 305 296 297 299 297 304 304 302 302 303 299 301 303 304 300 303 301 299 299 299 300 297 304 293 296 306 316 319 318 321 320 320 322 324 328 333 334 337 337 337 337 337 336 335 335 333 332 331 331 331 329 329 330 328 328 328 329 329 328 327 328 325 326 327 326 326 325 326 326 327 327 329 330 330 329 329 330 330 331 333 332 333 332 331 331 332 333
319 315 316 316 316 318 310 313 304 300 301 296 297 301 302 303 303 300 300 301 300 302 302 302 301 302 302 301 300 300 299 301 302 305 313 313 314 315 318 320 319 318 323 324 328 330 332 334 336 338 336 336 336 335 335 332 332 331 332 330 330 330 329 329 328 328 329 328 328 328 325 326 327 326 326 325 325 326 325 326 326 327 328 329 328 330 330 329 331 331 332 331 331 330 331 332 333
317 314 315 318 316 314 311 312 297 297 295 292 297 300 305 301 301 302 302 302 303 302 302 301 301 301 301 301 298 298 294 304 304 305 308 311 309 313 316 320 319 318 324 327 326 327 330 333 336 337 336 336 335 335 334 333 332 332 332 330 330 330 330 329 329 329 328 328 328 326 325 326 326 326 325 325 326 325 325 325 326 327 328 328 329 330 329 330 331 331 328 329 331 330 331 332 332
326 318 318 315 308 316 307 305 300 297 294 295 295 302 304 303 301 303 304 304 302 301 303 301 299 303 301 297 300 303 300 301 304 305 304 305 312 316 315 318 319 318 320 327 326 325 330 334 337 336 336 336 335 334 333 333 332 332 332 330 330 330 330 328 328 328 328 328 326 325 326 325 326 324 324 325 326 325 325 324 325 326 327 328 329 329 329 329 330 329 328 331 330 330 331 332 332
315 319 320 315 310 305 307 302 300 299 294 297 295 302 303 303 304 304 303 304 302 302 303 302 300 302 303 300 302 299 299 305 303 304 305 309 314 317 315 319 318 317 321 324 324 325 330 335 337 336 336 335 335 334 334 333 332 333 331 330 330 330 328 328 327 328 327 326 325 326 325 325 324 324 324 325 325 324 324 324 324 326 327 327 329 329 329 330 329 328 329 331 330 331 331 332 332
320 315 325 316 306 312 306 298 297 297 300 303 299 301 304 306 305 304 304 304 304 302 303 302 300 301 299 301 302 297 307 300 303 304 307 311 316 317 315 318 317 318 319 322 322 324 330 335 337 336 336 335 335 334 334 332 332 332 330 329 330 329 328 328 329 328 326 325 325 325 325 324 324 323 324 325 324 323 323 323 324 325 326 327 329 328 329 328 328 328 330 330 330 330 332 332 332
319 315 317 315 309 309 297 295 296 298 301 305 302 303 305 306 305 306 306 305 303 303 304 302 303 302 298 302 303 303 305 304 305 308 314 314 316 316 314 312 317 317 319 320 321 325 331 335 336 335 335 335 335 334 334 332 333 332 330 329 330 328 328 328 328 327 325 325 324 325 324 324 323 323 323 323 322 322 321 322 324 325 326 327 328 328 329 327 328 329 330 330 330 331 332 332 332
321 311 314 306 304 305 296 295 296 298 300 305 306 305 306 307 307 306 305 304 301 299 300 302 302 301 300 304 298 306 306 306 308 311 314 316 317 315 313 311 315 317 318 319 320 326 331 335 335 335 334 334 334 335 333 332 333 331 330 330 329 328 327 328 327 326 325 325 324 324 324 323 323 323 323 321 321 320 320 321 322 324 325 327 328 328 328 327 328 328 330 330 331 332 332 332 332
317 309 318 309 297 303 297 296 298 303 302 305 306 308 311 308 308 306 304 305 305 305 300 301 300 297 301 301 299 302 304 306 307 311 312 315 315 314 312 312 314 316 317 317 321 328 329 333 333 334 333 333 334 334 333 333 332 330 330 330 328 326 326 326 326 325 325 325 324 324 323 323 322 322 322 321 320 319 319 319 320 322 324 326 327 328 328 328 328 328 330 330 331 332 332 331 331
310 308 302 301 303 294 296 297 297 300 302 305 306 307 307 307 307 306 304 303 304 304 304 303 301 298 302 300 302 302 302 305 306 306 308 314 316 315 312 312 315 316 316 316 321 327 326 331 332 333 333 332 333 333 333 332 331 331 331 330 328 326 325 325 326 325 325 324 323 323 322 322 321 321 321 319 318 316 317 318 318 320 323 325 326 327 327 327 327 328 329 331 331 332 331 331 330
302 307 312 300 295 294 294 296 298 301 302 305 306 309 307 306 306 304 304 303 306 304 300 302 299 298 300 300 301 306 305 305 304 303 306 310 316 312 310 311 314 317 316 317 319 325 325 326 330 331 331 331 333 332 332 332 331 330 330 330 328 325 325 325 325 325 324 324 323 323 322 321 320 319 318 317 315 315 316 316 316 317 321 324 325 326 326 326 327 328 329 331 331 331 331 331 330
301 302 304 294 293 294 296 297 299 301 303 304 303 307 306 307 307 303 303 301 303 303 302 301 300 303 299 299 301 302 304 303 304 305 306 310 314 313 313 310 317 318 320 319 321 322 323 324 325 328 329 331 332 332 332 331 331 330 330 330 328 326 325 324 324 324 323 323 323 322 322 321 320 319 318 317 316 315 316 315 315 315 318 321 323 325 326 326 327 328 330 331 331 331 330 329 329
303 307 300 296 295 296 297 296 297 299 299 300 302 304 305 306 304 303 303 303 303 302 303 303 303 302 298 301 304 303 302 304 306 306 307 307 310 313 317 311 319 319 321 319 319 319 322 322 322 323 325 329 330 330 331 332 330 330 330 329 328 326 324 324 323 323 322 322 322 321 321 320 319 318 318 317 315 315 315 316 315 315 315 319 322 324 325 325 327 328 329 330 330 329 329 328 329
303 305 305 296 300 297 296 296 297 295 296 301 303 304 305 304 306 304 302 301 302 302 302 305 304 303 299 301 302 300 301 305 307 307 306 308 309 313 315 312 315 318 319 318 318 319 320 321 320 320 322 323 323 327 330 331 331 330 329 329 329 327 325 324 323 322 322 321 321 321 319 318 318 317 317 316 316 316 315 315 314 316 315 316 321 324 325 325 327 328 329 329 329 328 328 329 329
308 308 301 298 296 297 298 294 296 296 296 302 303 302 302 306 305 304 302 300 303 302 304 305 307 301 296 299 301 303 302 305 305 306 308 313 314 314 316 315 315 317 318 317 317 317 318 319 319 318 320 320 321 322 323 326 329 329 329 329 329 328 326 325 324 322 321 320 321 320 318 318 316 316 315 317 316 317 315 314 312 315 314 315 319 323 324 324 326 328 328 328 328 328 329 330 330
310 305 301 296 294 295 297 296 298 297 297 302 303 302 301 304 305 303 304 304 303 306 304 300 304 301 302 302 303 303 304 305 306 308 311 313 313 315 315 313 312 312 314 316 314 315 316 315 315 316 317 318 319 320 322 323 327 328 328 328 328 328 327 326 326 323 322 322 321 320 318 315 315 312 316 314 315 314 313 312 312 312 313 314 317 320 322 323 326 327 327 327 328 327 328 329 330
313 307 296 295 292 295 297 296 297 294 300 303 302 302 300 301 304 304 303 304 300 301 301 303 301 304 301 303 304 304 304 307 310 311 312 310 310 310 311 311 310 310 313 313 312 314 315 314 313 313 316 317 317 319 320 322 323 326 326 327 327 327 326 325 324 322 320 320 319 318 318 313 308 309 311 310 313 313 315 316 314 313 313 314 316 318 321 322 325 327 327 327 328 327 328 330 330
304 297 295 293 295 295 299 297 299 301 300 301 302 301 300 299 302 301 302 300 299 300 300 303 304 303 304 305 306 305 306 306 309 309 310 308 308 306 306 307 307 307 310 310 311 311 313 313 312 311 314 317 316 318 320 322 322 324 321 321 321 323 324 324 320 315 318 314 318 314 311 308 307 309 311 315 311 311 313 315 314 314 313 314 315 316 319 321 324 327 328 328 327 328 328 322 322
298 296 295 292 296 298 302 301 302 300 299 302 303 303 301 301 302 304 300 300 300 299 300 302 302 304 305 305 305 304 304 304 307 308 310 309 308 306 306 306 306 306 308 309 309 310 311 311 312 310 311 316 316 317 319 319 319 320 320 320 320 322 320 319 315 315 312 312 313 311 308 306 308 309 309 313 312 311 309 313 314 316 312 313 314 315 317 320 325 326 328 328 329 328 321 319 318
300 297 293 294 299 300 300 301 302 303 302 301 301 302 302 302 302 304 300 299 301 299 299 300 302 303 305 305 305 306 304 305 307 306 309 310 309 307 307 307 306 306 308 309 309 311 311 311 311 311 309 313 315 316 318 318 318 318 317 317 317 316 317 317 315 314 313 310 312 309 308 307 309 308 317 317 313 307 307 313 314 315 315 314 316 317 318 320 322 326 327 329 329 322 319 318 318
300 297 295 297 301 299 302 303 303 303 303 302 301 302 301 303 303 303 301 298 299 301 303 302 302 303 305 307 308 307 306 304 306 307 306 309 310 310 308 308 308 308 308 309 309 310 309 310 310 310 309 311 314 315 316 316 317 316 314 314 314 314 314 316 315 314 312 310 312 310 309 308 310 307 308 307 304 304 304 307 306 306 306 305 314 309 311 316 320 318 321 324 317 319 317 318 317
301 296 298 299 299 298 302 302 303 303 303 301 301 299 300 304 303 302 301 297 297 299 303 304 305 305 305 305 305 306 305 306 305 306 306 306 308 309 310 308 310 310 310 308 309 310 309 310 310 310 309 310 313 314 316 316 316 312 311 311 312 313 314 315 314 313 311 311 311 311 310 308 308 307 307 307 306 306 306 306 307 307 306 308 313 310 312 315 316 318 318 317 317 318 317 317 316
294 297 298 299 300 298 301 302 303 302 302 300 300 302 303 301 300 301 300 300 302 304 305 305 305 306 306 306 305 303 303 304 305 305 307 306 306 308 309 310 309 308 309 309 310 310 309 309 309 309 308 309 311 313 315 315 312 310 309 310 311 312 314 315 314 311 311 311 311 311 308 307 308 306 306 306 306 305 305 306 306 306 306 306 311 311 312 314 316 318 317 316 317 317 317 316 315
298 294 297 298 301 299 301 300 301 299 299 299 301 302 299 300 296 300 299 302 304 305 306 305 306 305 305 304 304 303 303 303 303 306 307 307 308 308 309 309 309 308 307 308 309 310 310 309 309 309 308 308 310 311 313 312 310 309 309 311 312 312 312 313 312 311 311 311 311 310 308 307 306 305 307 306 305 305 305 305 307 307 306 304 307 310 311 312 315 317 317 315 317 316 315 314 313
296 295 298 298 299 300 301 301 301 299 299 300 300 298 298 299 299 300 299 302 303 304 304 304 304 304 303 303 302 303 302 303 303 304 307 305 307 311 310 310 309 308 307 308 309 310 310 310 309 309 308 308 309 311 311 311 309 310 309 309 309 313 311 312 312 311 309 310 310 309 308 306 306 307 306 306 306 305 305 306 306 305 306 305 306 306 310 311 314 316 317 315 315 314 313 311 312
298 297 298 298 298 299 300 300 300 300 300 300 297 297 299 299 300 297 299 301 302 302 302 302 302 301 301 302 302 302 302 302 303 303 304 305 307 307 310 309 308 307 308 308 309 309 311 310 309 309 309 309 309 310 310 309 309 309 309 308 309 311 309 311 311 309 307 307 309 309 308 307 306 305 306 305 304 304 305 306 306 305 305 305 306 306 310 311 314 316 316 314 315 313 312 310 311
299 297 298 298 299 298 299 299 299 299 299 299 297 296 297 299 298 293 299 301 300 300 300 301 301 300 301 301 302 302 302 302 302 303 302 303 303 305 305 307 306 307 307 307 309 309 311 311 310 310 309 310 310 310 308 308 309 309 309 308 309 309 309 310 309 308 307 307 309 309 308 307 307 306 305 305 304 304 305 305 305 305 305 305 305 307 309 311 314 315 314 314 312 311 311 310 310
298 298 296 296 297 297 298 298 298 298 297 298 297 295 297 297 296 294 297 299 300 299 300 300 299 299 299 300 300 300 301 301 301 301 301 301 302 302 303 305 306 306 307 307 308 308 309 311 310 310 309 310 310 309 308 307 309 309 308 308 309 309 309 308 307 308 307 307 308 309 308 307 306 306 306 305 304 304 304 304 305 304 304 304 304 307 308 313 314 314 314 315 314 311 310 309 310
297 296 291 294 296 295 297 296 297 298 296 297 296 292 291 293 292 296 298 299 299 299 299 299 299 299 299 299 299 299 300 300 300 300 301 302 301 303 303 306 307 307 308 308 308 308 309 311 311 310 310 309 309 308 308 307 308 309 309 308 309 310 309 308 307 307 307 307 309 309 308 308 306 306 306 306 305 304 304 304 305 305 305 304 305 307 309 311 313 312 313 314 313 311 310 308 310
297 295 292 292 292 291 296 297 297 296 296 295 294 283 288 292 294 297 299 299 299 298 298 298 299 298 298 298 298 299 300 300 300 301 301 301 302 302 303 305 307 308 307 307 307 308 310 312 312 312 310 309 308 309 308 307 308 309 309 309 309 309 308 308 307 307 307 306 308 309 308 307 306 305 306 305 304 303 304 305 304 304 304 305 306 306 305 308 312 312 313 311 312 309 307 307 306
291 293 294 289 287 287 294 295 293 293 294 293 294 284 288 292 295 297 298 300 298 295 295 296 297 298 297 297 298 298 299 300 301 301 302 303 303 303 303 304 307 307 306 306 307 308 309 311 312 312 311 309 309 308 308 307 307 308 309 309 308 309 308 308 308 307 306 306 308 309 308 307 306 305 306 306 304 303 303 303 303 304 304 304 304 304 305 308 311 312 311 311 310 308 307 305 305
292 288 286 288 286 289 292 295 292 291 292 293 292 284 287 291 294 298 298 297 298 294 295 295 297 297 298 298 297 298 299 300 301 302 302 303 303 303 304 304 304 306 307 307 307 308 308 310 310 310 310 309 308 308 308 307 308 308 309 310 307 309 309 308 308 307 306 306 308 308 307 307 307 306 306 306 304 304 303 303 303 304 304 303 304 304 304 306 310 312 311 311 308 307 306 304 304
291 288 287 287 287 288 291 291 294 295 292 293 291 285 289 290 294 296 298 297 295 294 295 296 297 298 298 298 299 299 299 299 300 301 302 303 303 303 305 304 304 305 307 307 308 308 308 309 310 309 309 309 309 308 308 307 308 308 308 308 308 309 308 308 307 307 306 305 306 308 307 307 307 306 306 306 305 304 303 303 303 305 304 303 303 303 302 305 310 312 309 310 308 306 304 303 302
288 290 286 289 287 288 287 290 292 294 291 289 291 287 288 291 294 296 297 297 297 296 296 297 298 298 298 298 298 298 298 298 299 300 301 302 302 303 305 306 304 304 304 306 307 309 308 309 309 309 308 309 309 308 308 308 308 308 307 308 308 309 308 307 307 307 306 305 305 307 307 307 307 306 307 306 304 305 303 303 303 305 304 303 304 303 302 304 310 309 309 309 308 307 305 302 301
287 287 285 287 288 289 288 288 290 292 291 288 288 289 289 291 293 295 296 297 297 296 296 297 297 297 298 299 298 298 298 298 300 301 304 304 305 305 302 303 303 303 303 303 304 307 307 308 308 308 308 308 308 308 308 307 307 307 306 306 307 308 307 307 307 306 306 305 305 306 308 307 307 307 307 306 305 304 303 303 304 304 304 303 303 302 303 307 310 309 309 306 306 305 304 302 301
290 290 288 287 285 286 287 292 290 291 289 288 288 287 289 291 292 294 296 296 296 297 298 298 298 299 299 299 299 299 299 299 302 307 310 309 307 307 305 304 304 304 303 303 303 304 306 307 307 307 308 308 308 307 308 306 306 306 305 305 307 308 307 306 306 306 306 305 306 307 308 307 307 307 307 306 305 304 303 303 303 304 303 303 303 301 302 305 308 308 308 306 303 303 303 303 301
292 291 289 287 287 288 291 291 291 293 289 287 288 289 289 290 292 295 297 297 297 297 297 297 298 299 300 299 299 300 301 301 308 309 311 311 310 306 306 305 304 303 303 302 302 302 303 306 306 305 306 307 307 307 307 306 306 305 304 305 306 307 306 306 306 305 305 304 306 307 308 306 306 307 307 306 305 305 304 302 304 303 303 303 302 302 302 306 308 308 307 306 303 302 301 301 300
291 289 287 286 288 286 291 293 291 291 288 286 289 289 290 292 294 295 297 296 296 297 297 297 298 299 299 300 301 301 302 307 307 307 308 308 306 307 305 304 305 301 301 301 300 302 302 304 306 305 305 306 307 307 306 306 306 306 305 305 305 306 305 305 305 305 305 306 306 306 308 306 307 307 307 306 305 304 303 302 303 302 302 302 302 302 303 307 309 308 307 305 304 302 300 301 302
291 288 287 286 287 290 292 291 292 293 290 286 288 288 289 291 293 295 295 295 296 297 298 298 298 298 299 300 300 302 302 304 304 305 306 306 308 307 304 304 303 302 301 300 300 301 302 303 305 305 305 306 305 307 306 305 306 305 305 304 306 304 304 305 305 305 306 305 306 306 308 306 306 306 307 306 306 304 303 302 303 303 302 302 301 301 302 305 309 307 306 305 303 302 301 303 301
287 286 284 283 288 287 284 291 290 292 289 287 288 287 289 293 295 295 297 297 297 299 299 300 300 298 300 299 301 301 300 301 302 303 302 304 306 307 305 303 303 302 301 299 301 301 303 303 303 304 304 305 305 306 306 306 306 305 305 306 306 305 304 305 305 305 305 304 305 306 307 306 306 306 307 306 306 305 304 303 303 303 302 302 301 301 302 305 307 306 306 305 304 302 299 300 302
288 288 286 285 287 289 288 288 291 293 292 291 288 288 289 292 292 293 295 297 299 300 300 299 299 303 301 302 301 302 299 300 302 302 303 302 303 305 305 305 303 302 301 300 300 301 304 302 303 304 304 304 305 305 306 306 307 306 306 306 305 305 304 304 303 303 304 304 305 305 306 306 306 307 307 306 305 305 304 303 303 303 302 302 302 302 302 305 305 305 307 305 304 302 300 299 301
285 289 289 288 291 290 290 291 290 286 284 290 290 281 281 288 289 290 293 293 295 296 297 298 298 299 299 299 300 301 304 303 302 302 302 303 303 304 304 303 303 302 302 303 301 302 302 302 302 303 303 304 304 305 306 307 306 305 305 304 303 302 301 302 302 303 304 304 305 306 306 306 307 307 306 306 305 305 305 304 303 303 302 302 302 302 301 302 304 305 306 306 304 303 302 299 299
283 285 288 292 291 290 290 288 288 281 281 288 291 281 279 286 288 291 293 292 293 296 296 297 299 299 298 300 300 301 302 303 303 303 304 303 303 303 304 304 304 303 303 303 303 302 302 302 302 303 303 304 305 304 305 306 305 305 305 304 303 303 302 302 302 302 304 304 305 305 305 305 307 307 306 306 305 305 305 304 304 303 303 302 303 301 300 302 304 305 307 306 305 305 303 300 300
283 290 292 291 290 289 289 290 287 284 288 286 289 286 278 281 287 292 293 291 292 294 296 297 298 299 298 298 299 300 300 300 301 301 302 302 302 302 303 305 304 303 303 302 302 302 301 301 301 302 302 304 305 305 305 305 305 304 304 303 303 303 302 302 303 304 304 304 304 305 304 305 306 306 306 306 305 305 305 304 304 303 303 303 302 301 300 301 304 306 306 307 306 305 305 302 300
288 291 293 292 292 292 291 287 285 285 283 281 283 285 280 279 287 294 294 290 291 292 294 295 296 297 298 298 299 300 300 301 300 301 301 302 302 302 301 302 302 301 302 302 302 302 302 301 301 301 302 303 304 305 305 304 305 304 304 304 302 303 302 303 303 303 304 304 303 303 304 304 305 305 305 306 305 305 305 305 304 303 303 302 303 302 300 301 302 304 305 306 306 305 305 304 302
292 293 293 293 292 291 291 285 285 284 282 279 282 283 278 279 287 290 292 289 291 292 294 294 296 297 298 299 301 300 300 300 301 300 300 301 301 302 301 301 301 302 301 302 302 302 302 301 301 301 301 302 304 304 304 304 304 304 303 303 302 301 302 303 303 303 303 303 303 303 303 304 304 304 304 305 305 305 304 305 304 304 303 302 302 301 300 300 301 303 305 305 305 305 304 304 304
293 292 292 290 289 286 287 285 284 282 276 280 284 284 281 276 284 287 287 293 293 292 293 295 297 298 299 301 298 299 298 298 298 299 301 302 301 301 301 301 301 301 300 300 301 301 301 301 300 300 301 302 303 304 303 303 304 303 303 303 302 302 301 302 301 302 303 302 302 303 303 303 303 304 303 304 305 305 304 304 305 304 303 303 302 301 301 301 302 302 304 305 304 305 304 303 303
293 288 285 284 284 285 283 283 283 277 276 281 281 285 285 275 281 288 291 292 292 292 293 293 295 296 298 299 299 298 297 299 299 299 300 302 302 301 301 301 301 300 299 299 300 301 301 301 301 300 300 301 302 303 303 304 304 303 302 303 303 302 302 303 302 302 303 302 302 303 302 302 302 303 303 303 304 305 304 304 304 304 303 302 302 302 301 301 301 301 302 304 304 303 303 303 302
288 286 285 279 278 279 277 279 275 275 276 281 283 285 281 280 285 289 291 293 294 294 294 296 295 295 297 298 299 298 299 298 298 299 300 303 302 302 302 301 301 299 299 300 301 301 301 301 301 300 300 301 302 303 303 303 303 303 303 303 303 304 303 303 303 303 303 303 303 302 302 302 302 302 302 303 304 304 304 303 303 303 303 302 302 302 301 300 301 300 301 302 303 302 303 303 301
285 282 281 279 275 274 271 275 279 279 279 281 282 286 279 284 288 292 292 293 294 295 297 298 297 296 297 298 299 299 300 299 300 301 302 302 302 302 302 302 302 302 301 300 300 301 301 302 301 300 300 301 301 302 302 302 303 303 303 303 304 304 304 303 304 304 304 304 303 303 303 303 303 303 303 303 304 305 304 304 304 303 303 302 302 302 301 301 301 301 300 301 301 302 302 302 302
286 287 285 280 281 278 272 276 274 276 279 281 282 279 277 279 286 291 294 295 294 294 295 296 296 297 297 297 297 298 297 299 299 300 301 301 301 301 302 302 302 302 301 300 299 299 300 300 301 300 300 301 301 302 302 302 302 302 302 303 303 304 304 304 304 305 304 304 303 303 304 303 303 303 303 303 303 304 304 304 303 303 303 302 302 301 302 301 301 301 300 300 300 301 301 302 301
287 289 288 281 281 283 277 279 277 277 277 277 278 277 281 285 292 294 296 294 294 293 294 295 295 295 297 296 298 297 297 298 300 300 300 300 301 301 302 302 302 301 301 300 300 300 300 300 300 300 300 301 301 301 302 302 302 302 302 302 303 303 304 304 304 304 304 305 304 304 304 303 303 303 303 303 303 304 304 303 303 303 302 302 302 302 301 301 301 301 299 299 299 301 300 300 301
285 285 281 282 286 286 281 277 278 277 275 275 280 282 286 291 292 294 295 292 291 292 293 293 294 295 296 296 298 297 298 298 301 301 299 299 300 301 301 301 301 301 300 301 302 301 301 301 300 300 300 300 302 302 302 302 302 302 302 302 302 303 303 303 304 304 303 304 304 303 303 303 303 303 303 304 303 303 303 303 302 302 302 302 301 301 301 301 301 301 300 298 299 299 299 299 300
283 280 282 287 289 287 280 276 278 277 274 276 282 278 280 282 280 291 290 291 290 290 291 292 294 294 295 296 297 298 298 300 299 299 299 299 300 300 301 301 301 301 301 301 302 301 301 302 301 300 300 300 301 302 302 302 301 301 302 302 302 303 303 303 303 303 303 303 303 303 303 303 303 303 304 304 303 303 303 302 302 302 302 302 301 301 301 301 301 300 300 299 299 299 299 299 299
287 284 286 283 279 277 281 279 271 271 271 274 278 280 281 281 284 288 287 289 290 291 291 291 293 294 294 296 298 299 299 298 298 298 298 299 299 302 301 301 301 300 300 300 301 302 301 300 301 301 301 301 301 302 302 302 302 303 303 302 302 302 302 302 302 301 301 302 302 303 303 303 303 302 303 303 303 303 302 302 302 301 302 302 301 301 301 301 301 300 300 300 299 299 299 298 298
287 289 284 282 282 279 278 279 279 279 272 272 274 279 278 287 286 289 290 291 291 291 291 291 293 294 295 296 298 299 298 298 300 299 298 299 300 299 300 300 299 300 300 300 300 300 300 301 300 300 301 301 301 301 302 302 302 302 303 302 302 302 302 302 302 301 302 301 302 302 302 301 303 303 303 304 303 303 302 302 302 302 301 301 301 301 301 301 301 300 300 299 299 299 298 298 298
281 281 280 281 281 283 281 280 279 277 274 275 273 274 279 289 292 290 290 291 291 292 292 293 293 294 295 295 298 298 300 300 298 296 297 297 297 298 300 298 298 298 298 298 299 300 300 300 300 300 300 300 301 301 301 302 302 302 301 301 302 302 302 302 302 302 302 301 301 301 302 302 301 302 302 303 303 303 302 302 301 301 301 301 301 301 301 300 300 299 299 299 298 298 298 298 298
284 283 281 284 280 278 274 275 281 279 277 274 275 275 283 290 294 293 291 292 294 293 294 294 294 294 295 297 296 298 298 297 295 296 296 295 295 295 296 298 298 297 297 297 298 297 297 299 300 299 299 299 299 300 301 301 301 302 301 301 301 301 302 302 301 301 301 301 301 301 302 301 301 302 302 303 302 302 302 301 301 300 301 301 301 301 300 300 299 299 299 299 298 298 298 297 297
Wind_Speed
7 5 4 7 6 5 6 4 4 2 2 5 6 5 5 3 3 3 4 3 2 2 4 1 2 1 1 1 2 3 4 3 1 1 2 1 3 4 7 7 7 6 7 8 8 9 9 13 16 16 15 14 14 14 13 12 12 11 11 10 10 9 9 8 7 7 6 5 5 5 4 4 4 4 4 4 4 3 4 4 5 6 7 7 7 7 8 9 11 11 11 12 12 13 13 15 15
5 5 5 6 4 3 3 3 3 5 3 5 6 7 8 0 0 3 5 7 4 2 0 0 0 0 2 4 2 4 6 4 7 1 1 3 4 5 6 7 9 8 7 8 8 8 8 9 16 15 14 15 14 14 13 12 12 11 11 10 9 9 9 8 8 7 6 6 5 5 4 4 4 4 4 4 3 3 4 4 5 6 6 7 7 8 9 10 10 11 11 11 12 13 13 14 15
5 5 5 5 5 3 5 4 5 3 5 6 6 9 6 5 1 2 12 7 6 4 2 2 0 1 2 1 2 3 3 3 3 4 3 6 7 4 6 6 7 8 8 7 8 8 7 9 16 15 15 15 14 14 13 12 12 11 11 10 10 9 9 8 7 7 6 6 5 5 4 4 4 4 4 4 3 4 3 4 5 6 6 7 7 9 9 9 10 11 10 10 13 14 14 14 15
5 4 1 4 3 1 2 2 5 5 6 4 5 7 7 2 1 1 8 7 3 3 1 2 1 2 2 3 3 2 4 4 1 2 3 3 1 9 7 7 8 6 5 6 7 7 7 10 15 15 15 15 14 13 13 12 12 11 11 10 10 9 9 8 7 7 6 5 5 4 4 4 4 4 4 4 4 4 4 4 5 5 6 7 7 9 9 9 10 11 11 12 12 13 14 15 16
4 2 1 1 2 2 2 4 5 4 8 4 5 7 6 2 2 3 6 5 5 2 1 2 1 0 1 2 2 1 0 2 4 4 3 2 4 6 7 6 6 6 5 6 7 7 7 16 13 15 15 15 14 14 13 13 12 11 10 10 10 9 8 8 7 7 6 5 5 5 5 4 4 3 4 4 4 4 4 5 5 5 6 7 8 8 8 9 10 11 11 12 12 13 14 15 17
5 3 2 2 2 2 2 3 4 7 6 5 7 7 12 13 5 8 4 9 7 3 4 3 2 1 2 2 2 2 0 1 2 1 2 1 6 9 7 6 7 6 5 5 5 6 8 17 15 16 15 15 14 14 13 13 12 11 10 10 10 9 8 8 8 7 6 6 5 5 4 4 3 4 3 4 4 4 4 5 5 5 6 6 8 8 8 8 10 11 11 13 13 14 15 15 16
1 2 2 2 4 3 4 5 7 7 6 6 8 9 11 11 7 2 0 1 1 3 1 2 2 0 2 2 2 4 1 4 0 1 3 6 7 8 7 4 6 6 6 5 4 4 12 17 16 16 15 15 14 14 14 13 12 12 11 10 10 9 9 8 8 7 6 6 6 5 4 4 3 3 3 3 4 4 5 5 5 6 6 6 7 7 8 9 10 11 12 12 13 14 14 15 16
1 1 1 2 2 3 5 7 9 5 6 9 9 11 9 5 2 1 3 2 2 2 4 3 1 1 4 1 3 0 3 1 6 7 7 6 6 8 6 5 5 7 6 5 4 5 13 16 16 16 15 15 14 14 14 13 12 12 11 11 10 9 9 8 8 7 7 6 6 5 4 3 3 3 3 4 4 4 5 5 6 6 6 6 7 7 8 8 10 11 12 13 13 14 15 16 16
2 2 0 1 3 2 7 9 8 6 8 9 11 12 11 11 6 3 5 2 3 2 10 4 5 2 1 5 4 3 3 6 7 8 7 7 7 7 5 6 5 7 6 5 5 7 8 14 15 15 15 15 14 14 14 13 13 12 11 11 10 10 9 9 8 8 7 7 6 5 4 3 3 3 3 3 4 5 5 5 6 7 7 6 6 7 8 9 9 11 12 13 13 14 15 16 16
2 3 2 2 2 8 6 9 10 6 9 10 11 11 12 2 0 2 3 4 4 4 1 8 6 5 4 5 3 4 2 6 7 4 6 7 6 6 5 6 6 9 6 5 6 7 6 12 15 13 14 14 14 14 14 14 13 12 12 12 11 10 10 9 9 8 8 7 6 5 4 4 3 3 2 1 4 5 5 5 6 7 7 7 6 7 7 9 9 10 12 13 14 14 15 15 15
3 4 1 2 4 6 8 8 9 7 7 6 9 11 8 3 4 5 3 5 3 4 5 7 2 6 3 4 4 1 6 6 6 7 6 6 6 5 5 4 6 9 7 6 5 7 7 7 13 13 13 13 13 14 14 14 13 13 12 12 11 11 10 10 9 9 8 7 7 5 5 4 4 2 2 3 4 5 5 5 6 7 7 7 7 7 7 8 9 10 11 13 14 14 14 13 13
2 4 4 5 6 6 6 8 9 8 10 10 10 11 1 3 1 3 4 5 4 6 5 7 1 2 4 3 3 3 5 5 4 7 6 5 5 5 4 4 4 9 7 6 5 6 7 7 7 9 12 12 11 12 12 13 13 13 13 13 12 11 11 10 10 9 8 8 7 6 5 5 4 3 3 3 3 4 5 5 6 6 7 7 6 7 7 7 8 9 11 12 13 14 13 12 11
2 0 4 5 6 6 7 10 8 9 10 10 11 2 3 1 2 3 4 5 5 5 4 12 4 2 2 2 1 5 6 5 6 7 7 5 5 5 3 4 3 6 8 7 6 6 8 7 7 6 8 11 11 11 11 12 13 13 13 13 13 12 11 11 10 9 8 8 7 6 6 4 4 3 3 3 4 4 4 5 6 6 6 6 6 7 7 7 7 9 11 12 12 13 12 11 11
3 3 1 6 3 7 7 7 5 7 7 6 0 1 4 1 0 3 3 5 6 4 2 3 3 2 4 2 2 3 3 5 7 6 4 5 5 5 4 5 4 4 7 6 7 6 7 8 7 6 7 7 6 8 10 12 12 13 13 13 13 13 12 11 10 9 8 8 7 7 6 5 4 4 5 5 5 5 4 5 6 6 6 6 6 6 7 7 7 8 9 10 12 12 12 11 13
2 3 4 4 7 6 6 7 6 8 9 7 0 2 2 1 2 3 2 4 3 2 1 2 0 3 2 4 1 1 4 4 5 5 4 5 5 5 4 5 5 4 5 6 5 6 7 8 9 7 7 7 7 6 5 8 13 12 12 12 12 13 11 11 10 9 8 8 7 8 6 6 5 6 6 6 6 6 5 5 5 5 6 6 6 6 7 6 7 7 8 9 10 11 12 15 14
2 3 3 5 10 8 6 7 4 6 6 6 2 3 3 3 3 0 1 0 1 1 2 1 1 2 3 5 1 4 7 6 4 5 6 5 4 4 3 4 4 4 5 5 6 6 7 7 8 8 8 8 7 6 7 6 10 12 12 12 11 11 10 10 9 8 7 6 7 8 7 5 6 5 8 6 7 7 6 4 4 5 5 6 6 6 6 6 5 6 7 8 8 11 14 15 15
1 4 4 5 10 9 5 5 4 7 4 7 3 3 2 2 1 1 3 1 3 5 3 3 3 2 6 6 2 8 6 6 6 6 5 4 4 4 4 3 4 5 5 6 6 7 7 8 7 7 8 9 9 8 7 8 9 12 10 11 12 11 10 10 9 9 7 7 7 7 7 4 4 5 6 4 8 4 6 6 4 4 5 5 5 6 7 6 5 4 6 7 6 11 14 14 8
4 7 6 8 7 10 5 8 6 4 9 5 5 2 3 3 1 2 0 4 5 6 7 5 5 7 8 8 6 8 9 9 7 9 6 6 5 5 5 5 6 7 8 7 7 7 8 8 8 7 7 9 9 8 6 7 7 11 7 6 6 8 8 8 7 5 6 4 8 6 4 5 6 5 6 6 5 5 5 5 3 4 5 5 5 6 7 7 5 5 7 7 5 8 12 5 7
5 4 6 11 8 6 5 6 9 8 7 9 7 2 3 5 1 1 4 5 4 6 7 6 9 11 10 9 9 7 9 8 9 7 8 8 8 8 8 7 8 6 7 8 8 9 9 8 8 8 7 8 9 8 6 6 7 8 8 7 6 7 6 6 6 6 5 5 5 4 5 6 6 5 3 4 2 1 1 5 6 5 6 6 6 6 7 9 8 8 9 9 7 8 6 4 6
6 5 8 9 7 5 3 3 7 9 11 11 10 9 8 7 3 2 8 10 9 12 9 7 11 11 9 13 14 9 10 10 11 9 9 10 9 9 7 8 9 10 10 10 10 9 10 10 11 10 9 9 8 7 6 7 6 7 7 7 6 6 6 6 5 6 5 5 6 6 6 7 6 3 5 6 3 2 4 7 8 6 6 7 7 5 8 9 12 10 10 9 6 4 4 4 5
4 7 8 7 7 10 10 8 10 10 8 12 12 9 9 7 8 6 7 10 13 10 9 11 14 11 10 11 5 10 10 9 8 8 8 8 9 8 8 9 10 10 9 8 7 10 12 11 9 10 9 9 9 7 7 6 6 7 7 7 7 7 6 7 6 6 6 6 6 7 7 5 4 3 4 3 3 4 4 4 4 4 4 4 6 4 5 5 6 5 4 4 2 5 3 4 4
2 7 7 10 6 9 5 7 7 2 3 3 5 8 10 7 10 10 10 14 13 5 6 8 10 7 6 5 6 5 5 11 11 9 9 11 11 11 8 7 6 7 8 8 11 10 12 12 11 10 10 9 10 9 8 7 7 7 7 8 7 7 8 7 7 7 7 7 6 6 6 3 4 3 4 4 5 6 4 3 5 6 5 4 6 5 6 2 2 3 3 3 2 4 2 4 3
8 5 9 6 6 10 6 7 4 1 4 5 7 7 7 7 10 8 10 15 9 8 11 10 10 11 11 11 10 7 9 8 10 12 12 11 11 11 10 9 8 8 8 10 9 9 11 11 11 10 11 10 11 9 7 7 7 7 7 8 8 7 8 7 7 7 7 6 6 6 6 4 5 4 5 4 3 3 3 4 3 3 2 3 4 5 1 0 4 2 2 3 1 3 1 3 3
7 8 4 7 8 13 10 11 8 3 5 9 6 8 12 11 16 6 13 13 13 16 13 12 11 10 10 12 11 13 15 12 11 11 14 14 14 14 12 11 9 6 7 7 8 9 11 13 12 12 11 11 10 10 8 8 7 7 8 7 8 8 8 8 7 7 7 8 6 7 5 6 7 6 5 4 5 3 4 3 0 0 0 3 2 1 1 2 3 3 1 3 1 2 3 4 2
7 8 7 9 10 10 8 6 6 4 7 6 7 11 16 12 14 10 21 15 18 17 13 14 13 13 13 13 15 16 13 12 11 10 8 7 8 12 10 9 8 8 9 8 7 9 12 12 12 13 12 13 10 11 9 8 8 8 7 7 7 7 7 7 7 7 8 7 7 6 6 6 6 7 5 5 5 4 4 2 1 2 3 1 0 2 2 3 3 0 3 1 1 0 4 3 2
8 11 8 7 9 11 9 7 9 10 8 4 7 16 15 12 13 21 24 20 21 12 14 16 13 13 13 14 16 14 12 11 10 11 10 8 8 8 8 9 8 9 10 8 8 8 8 11 13 14 13 13 12 11 9 9 9 9 8 8 8 7 7 7 6 7 7 8 8 6 7 6 6 6 6 5 5 4 3 2 1 2 1 2 1 2 1 1 1 1 0 1 0 2 4 3 3
1 4 7 10 10 9 8 9 8 7 5 5 10 15 12 8 7 15 9 16 7 8 12 12 11 11 11 10 10 9 10 10 11 9 7 6 7 9 9 8 9 10 7 8 8 8 8 11 12 13 12 12 11 12 11 10 9 10 9 8 8 7 7 7 7 7 7 7 8 7 6 6 5 5 5 5 5 4 3 3 3 4 3 3 2 1 0 1 1 4 2 3 2 3 4 4 3
5 6 6 8 9 9 10 10 11 4 6 8 11 14 11 12 8 18 20 19 9 8 9 7 5 6 6 8 9 7 7 7 7 7 10 9 9 8 8 10 10 8 8 10 8 7 8 12 12 12 12 12 12 11 11 10 10 10 9 8 8 8 7 7 7 7 7 7 7 8 6 6 5 4 4 5 4 4 5 4 5 3 3 3 2 1 1 0 2 3 2 1 1 3 4 2 2
4 3 7 9 9 12 12 14 12 7 9 2 1 7 14 11 12 22 23 22 13 9 10 9 8 7 9 8 8 7 9 9 8 7 10 10 7 8 10 10 10 9 9 10 9 8 9 10 11 12 11 11 12 12 12 10 9 9 9 9 8 8 8 7 7 7 7 7 7 9 7 6 5 5 5 4 4 4 4 4 3 2 2 1 3 3 0 1 2 2 1 2 0 2 3 2 4
3 4 5 9 9 11 14 11 11 11 3 5 4 7 8 8 19 20 17 11 9 8 9 9 7 7 7 7 8 9 9 8 9 10 9 9 9 9 10 10 11 11 9 8 7 10 8 7 8 8 11 12 12 10 10 10 10 9 8 8 8 8 8 8 7 7 7 7 7 8 7 7 6 5 5 4 4 3 3 3 3 3 3 2 4 3 3 3 3 4 4 2 2 2 4 3 4
2 4 5 6 4 6 4 6 7 9 4 6 4 7 11 4 11 11 8 10 7 5 5 5 5 7 7 8 9 9 9 9 10 10 11 11 9 9 10 8 10 10 7 7 10 12 9 9 8 8 11 11 12 11 11 10 9 9 9 8 8 8 8 8 7 7 7 7 7 8 7 6 7 5 5 6 5 4 4 4 4 4 3 3 3 4 5 5 3 3 3 5 2 4 4 3 4
2 2 5 5 6 4 2 3 10 10 1 3 5 8 13 12 10 4 2 2 1 4 5 5 7 8 8 8 7 8 9 9 10 11 10 11 11 9 9 9 8 8 9 9 9 8 9 8 10 10 11 13 13 12 10 11 10 9 9 9 8 8 8 8 7 7 7 7 7 7 7 6 6 6 5 6 6 5 4 6 6 4 4 3 3 4 2 2 3 4 2 4 3 4 4 3 4
4 6 5 3 5 8 0 3 3 2 3 4 11 8 8 8 5 2 0 1 3 5 6 7 10 11 12 11 10 10 9 8 8 9 11 11 9 8 8 9 9 9 8 8 9 8 9 9 10 11 13 14 13 12 10 9 10 10 9 9 9 9 8 8 7 7 7 7 7 8 7 7 6 6 6 6 7 5 4 5 5 4 4 4 3 4 3 4 3 3 2 1 3 4 5 4 4
5 5 7 5 6 4 4 2 4 2 4 5 10 8 10 13 16 14 15 14 14 14 14 13 12 10 9 9 8 7 7 6 7 7 7 7 6 5 6 7 6 6 7 8 8 11 10 9 9 9 8 9 10 11 10 9 9 9 8 8 8 9 9 7 7 8 8 7 7 8 8 7 7 6 6 6 5 6 5 5 4 6 5 4 3 3 4 4 4 3 4 1 3 5 5 4 4
4 4 4 6 5 8 6 3 5 4 6 6 4 9 13 14 16 16 12 11 13 15 14 10 9 8 9 9 8 7 7 6 6 5 4 4 3 4 5 6 6 5 4 5 5 6 6 7 7 7 8 7 8 8 8 8 7 7 6 7 7 9 7 7 8 8 7 8 7 8 9 8 7 7 6 6 6 6 6 4 6 5 4 4 3 4 4 2 5 3 5 2 2 2 6 5 5
6 5 3 4 5 4 3 0 0 2 4 6 6 9 10 13 15 15 10 8 11 14 12 10 10 10 10 9 7 7 6 5 4 3 0 4 6 5 4 4 4 4 3 3 5 5 6 6 6 6 7 8 6 7 7 7 7 8 9 7 7 9 8 8 7 8 7 8 7 8 9 8 7 7 7 6 6 5 5 5 5 5 5 4 4 4 4 4 4 4 5 4 4 4 5 6 5
6 6 4 4 6 7 6 2 2 1 2 6 8 9 11 14 14 15 11 7 10 14 13 12 11 10 10 8 7 6 5 4 1 1 3 2 3 3 2 1 2 4 3 4 5 5 5 7 8 8 7 8 8 9 9 10 10 8 7 10 11 9 9 7 7 7 8 7 8 8 9 8 8 7 7 7 7 6 6 5 5 5 5 4 4 5 4 5 4 4 5 4 5 4 2 4 4
9 6 5 7 5 7 6 1 1 2 1 3 5 11 14 13 13 14 13 10 15 15 11 11 13 11 8 7 7 6 4 1 1 0 1 3 2 2 2 1 0 2 3 4 5 5 5 6 8 7 7 8 8 9 9 10 9 11 12 11 9 9 9 10 9 7 8 7 8 8 9 7 8 8 8 7 7 6 6 6 6 6 5 5 4 4 4 4 5 4 5 4 3 5 3 4 5
4 4 4 6 7 6 5 5 1 0 1 7 5 9 15 17 16 17 17 16 15 14 12 13 10 8 5 2 3 2 1 1 1 2 4 4 4 3 2 2 3 4 4 5 5 5 6 6 7 7 7 8 8 8 9 10 8 6 7 6 9 6 4 5 6 6 7 7 8 8 9 8 8 8 8 7 7 6 7 6 7 7 6 5 4 4 5 4 6 5 6 6 5 3 3 4 5
4 4 4 7 4 3 4 1 1 1 2 4 5 10 15 17 15 16 16 13 11 11 12 14 9 5 0 1 3 3 2 1 2 1 5 5 5 5 5 5 5 5 4 5 5 6 5 5 5 7 7 7 7 7 8 7 6 5 5 6 6 6 5 5 5 5 6 7 8 8 8 8 8 8 8 7 7 6 7 7 6 6 7 5 6 5 5 4 5 4 6 5 5 5 3 4 4
5 6 6 6 4 3 1 3 3 5 7 7 4 8 10 8 9 7 5 5 8 10 8 7 6 0 2 1 0 2 2 1 1 2 0 4 4 6 6 6 4 5 4 4 5 5 4 5 5 6 7 7 6 7 7 7 7 6 6 6 5 6 4 6 6 7 8 7 7 8 9 8 8 8 8 8 7 8 7 7 7 7 7 6 5 6 6 6 5 5 6 5 6 6 5 3 4
3 7 11 6 3 3 4 4 6 4 3 3 1 7 6 3 7 12 14 5 5 3 6 7 6 3 4 1 2 3 2 3 3 3 2 0 0 2 4 5 4 4 4 4 4 5 4 5 5 5 5 6 7 7 7 7 8 9 9 10 10 8 8 10 13 15 12 11 11 6 7 8 8 8 8 8 7 7 7 7 6 7 7 7 6 6 5 5 5 6 7 6 5 5 7 4 4
1 3 1 2 1 2 2 4 2 3 1 1 1 1 10 6 10 14 13 6 9 5 7 4 2 3 3 2 4 4 5 5 3 2 2 2 2 2 4 5 5 5 4 3 2 2 3 4 4 5 4 5 5 6 7 7 7 8 10 10 11 12 13 10 6 5 8 7 6 8 8 7 8 9 8 8 7 7 7 7 6 6 7 7 6 6 6 7 7 6 5 6 6 6 5 6 7
4 1 2 2 0 2 2 1 0 4 2 3 4 5 4 12 12 13 9 6 6 6 4 3 1 1 2 3 5 4 2 1 1 1 1 0 0 2 1 4 4 4 4 4 4 2 3 4 4 5 4 5 5 6 7 7 8 7 8 8 8 8 9 8 8 7 6 6 7 8 7 7 8 8 8 8 8 7 7 7 7 6 6 7 7 7 7 6 7 5 6 7 5 6 6 6 6
1 1 3 1 0 1 2 0 3 3 4 7 2 1 1 5 11 14 9 8 7 3 5 4 3 3 4 4 4 3 1 0 0 1 1 0 0 1 2 4 5 5 4 4 4 3 3 4 5 5 5 5 6 7 7 6 6 7 7 7 7 5 6 6 6 7 8 8 8 7 8 8 7 7 8 8 8 8 7 8 7 7 6 7 7 7 6 6 8 7 7 7 8 7 7 6 5
0 2 2 1 1 0 1 1 1 2 0 7 5 5 3 6 9 13 7 5 4 5 7 6 7 6 6 3 2 1 1 1 1 1 1 1 1 2 3 3 4 4 3 3 4 4 3 2 4 5 5 4 5 6 7 6 5 6 7 7 7 6 6 6 8 8 8 8 9 8 8 8 8 7 7 7 8 8 8 7 8 8 8 7 7 7 6 6 6 7 8 8 7 7 5 7 8
0 2 3 3 3 1 0 1 1 1 3 10 9 7 3 3 7 10 4 1 1 5 5 5 6 5 5 3 3 2 2 2 2 2 1 1 3 3 1 2 4 4 3 3 4 4 3 3 4 5 5 4 6 6 7 8 7 6 7 8 8 8 8 7 9 8 8 8 10 9 9 8 8 8 7 7 8 8 9 8 8 8 7 7 7 7 7 7 7 7 7 7 7 8 7 6 6
0 1 2 2 1 1 1 0 1 0 5 3 1 3 2 4 8 7 5 3 6 3 0 4 5 5 4 4 2 2 3 1 2 3 2 2 2 2 2 4 4 4 4 4 4 4 4 4 4 5 5 5 6 7 7 7 7 7 6 7 8 7 8 7 10 11 10 11 10 10 8 7 8 8 8 7 8 9 9 8 8 8 8 8 8 7 7 7 6 5 5 7 7 6 5 5 4
0 1 2 1 1 2 1 1 1 4 6 0 0 3 1 7 14 8 12 15 8 6 2 0 3 5 3 2 2 3 1 2 4 3 2 1 1 1 2 4 4 4 5 5 5 4 5 5 5 6 6 6 6 7 8 7 7 8 7 7 7 8 8 8 8 9 9 10 9 9 9 9 8 8 9 10 9 10 9 9 9 9 8 8 7 7 6 6 6 6 6 5 6 6 7 6 6
3 2 3 2 0 2 4 3 3 2 1 3 1 2 3 6 9 9 13 9 2 1 0 1 2 2 1 1 1 0 1 4 2 1 1 1 1 1 0 1 2 3 4 4 5 5 4 5 6 6 7 7 6 7 8 8 8 8 7 7 7 7 8 8 7 9 8 9 9 10 11 11 11 12 11 12 11 11 10 10 10 9 8 7 7 8 7 7 6 7 7 7 6 7 6 6 6
7 2 1 2 0 1 1 1 3 1 0 1 3 1 5 0 4 2 1 2 6 5 1 3 3 2 2 4 2 1 4 3 2 1 2 2 1 0 0 1 1 1 3 4 4 4 4 5 5 6 6 7 6 7 6 7 7 6 6 6 6 6 7 7 7 7 8 9 8 9 10 9 9 9 10 9 9 11 11 9 9 10 9 8 7 7 8 7 7 6 7 7 6 6 6 7 7
4 2 4 1 5 0 3 1 0 2 2 1 1 5 3 6 5 10 10 8 1 1 0 2 1 3 2 4 3 3 3 3 2 2 3 3 2 1 1 2 3 3 4 4 5 5 5 5 5 6 6 6 7 7 6 7 7 6 6 7 7 6 6 6 6 6 7 9 9 10 10 9 9 8 8 8 9 10 11 10 9 10 9 9 8 9 8 8 7 8 7 7 7 5 7 7 7
1 4 3 3 1 0 1 1 1 1 2 7 3 5 7 5 8 12 11 1 2 1 0 1 1 3 1 3 4 4 4 3 3 2 4 4 4 3 3 3 4 4 4 5 6 6 6 5 5 6 6 5 7 7 7 6 7 7 7 7 7 7 7 8 9 8 8 8 9 9 9 9 8 8 8 9 10 9 10 10 10 10 10 10 9 9 9 8 8 8 8 8 8 7 8 8 7
2 1 3 4 1 0 2 2 0 2 4 4 5 6 6 2 7 3 4 1 4 4 2 2 3 5 3 4 5 5 5 4 4 4 4 4 4 5 5 4 5 5 5 5 5 5 5 5 5 6 5 6 5 7 7 7 7 7 6 7 7 7 7 6 6 6 6 7 7 7 7 7 9 9 9 8 9 10 10 11 10 10 9 9 10 9 9 10 9 9 9 9 8 8 8 7 8
0 1 0 1 1 0 3 0 2 2 2 3 3 5 7 6 6 1 4 4 5 5 5 5 5 5 6 6 6 5 4 4 4 5 4 2 3 4 5 6 6 5 5 4 4 5 5 5 5 5 7 7 7 6 6 6 6 6 5 6 6 6 5 5 5 4 4 6 6 7 7 8 7 7 8 8 9 10 10 10 10 10 10 11 10 10 10 10 10 9 9 9 8 9 9 9 9
1 2 2 1 1 2 3 4 2 1 3 3 6 3 8 4 5 6 9 7 6 6 6 7 8 8 7 6 6 7 6 5 5 4 1 0 1 4 6 6 5 5 5 5 5 5 6 6 6 6 5 5 6 7 7 7 7 6 6 5 5 6 6 6 6 5 6 5 6 6 6 6 8 8 8 9 9 10 10 11 10 11 11 10 10 10 10 10 10 10 9 9 9 9 10 11 10
2 1 2 1 1 2 1 2 2 2 1 1 2 7 4 3 5 6 6 3 4 3 3 6 6 7 7 6 7 6 5 5 5 3 1 2 2 2 4 5 5 5 4 5 5 6 7 6 6 7 8 7 6 7 7 7 7 7 6 7 6 6 6 6 6 6 7 6 5 6 6 7 5 8 8 9 10 11 11 10 10 10 10 10 10 10 9 9 10 10 10 10 10 11 11 10 8
10 12 9 10 7 1 1 8 0 1 2 3 1 10 11 7 1 2 5 3 0 1 2 2 3 8 6 5 5 6 5 5 4 2 2 4 4 4 4 2 3 4 5 5 6 5 5 5 6 5 5 5 6 6 7 7 6 6 7 6 6 5 6 6 6 7 7 7 7 7 7 6 8 7 7 8 8 7 8 8 9 9 9 9 9 10 9 9 10 10 10 8 9 10 11 10 8
Wind_Direction
296 294 309 306 292 278 288 265 257 184 186 229 246 223 259 173 4 336 290 265 190 43 60 254 79 245 298 21 295 307 280 289 294 304 225 211 177 141 133 128 121 120 132 134 145 156 165 170 172 171 174 176 177 179 182 185 183 181 183 190 193 198 203 205 206 202 208 226 222 230 235 253 261 260 267 257 266 275 289 298 308 309 318 328 332 327 328 324 336 343 336 336 337 332 329 330 326
294 326 311 295 287 348 255 200 249 289 267 274 257 277 256 200 219 206 259 72 73 91 338 38 33 266 268 287 284 322 293 239 233 150 79 116 146 121 131 142 144 140 135 136 143 158 162 172 174 173 176 177 178 181 185 186 184 185 187 190 195 199 205 208 206 209 211 213 221 230 232 260 252 261 250 261 265 275 289 300 311 317 321 324 325 321 321 331 341 341 341 337 333 332 330 326 322
319 328 331 315 258 196 296 305 262 243 247 240 250 233 200 216 202 54 67 80 90 128 127 82 27 290 238 248 277 201 246 28 4 115 104 150 125 150 146 145 150 142 136 138 145 162 159 170 175 175 178 178 180 183 187 185 188 190 188 191 196 204 204 207 213 211 211 214 225 223 247 242 252 248 259 261 274 279 286 301 310 317 317 319 321 324 331 338 341 343 338 337 333 332 330 324 325
292 268 243 333 312 236 246 253 241 253 258 262 295 305 291 109 184 123 98 85 97 93 95 129 300 124 245 201 220 224 257 293 4 91 117 177 334 145 139 155 136 133 135 135 150 166 156 167 175 178 178 180 182 186 185 187 191 192 190 194 200 200 204 210 212 215 214 218 217 234 234 237 243 255 257 275 279 283 294 300 307 311 315 318 321 327 339 339 346 335 344 340 335 332 329 326 324
287 272 190 306 319 255 256 235 248 225 237 234 245 256 244 118 18 102 118 114 124 148 157 136 263 158 264 296 341 208 148 115 54 19 92 100 150 128 136 144 134 131 140 149 152 165 161 158 173 180 179 181 184 186 187 189 194 192 193 197 199 202 204 208 213 215 216 220 225 231 230 232 242 250 272 277 283 296 304 308 308 311 314 319 322 332 342 349 340 342 341 338 335 333 331 329 326
248 273 214 153 224 344 296 275 252 241 254 279 284 294 309 320 341 76 114 152 144 169 169 200 234 87 209 204 191 211 44 245 188 80 101 140 123 133 134 151 128 139 153 155 167 169 149 155 169 179 180 181 185 188 188 190 194 195 194 198 200 201 206 208 210 210 219 221 229 229 230 232 229 257 273 280 285 304 313 314 314 313 313 319 322 333 340 352 339 344 342 338 338 336 333 329 331
311 312 211 150 270 237 258 251 258 264 255 250 251 260 274 281 82 1 186 107 65 142 171 204 127 282 267 231 187 241 92 140 214 97 74 157 127 129 138 161 135 143 159 169 162 148 140 156 165 177 181 183 186 188 189 193 194 194 197 198 197 202 205 207 207 213 215 222 229 231 227 227 235 249 265 276 295 308 316 319 317 314 315 319 323 338 336 348 337 346 340 341 338 335 332 333 332
212 203 290 174 266 223 230 243 251 257 265 278 285 276 264 281 15 63 341 324 154 194 188 175 101 168 265 140 240 276 125 75 110 116 118 125 133 127 152 157 140 141 161 167 147 111 146 155 162 174 182 185 187 188 192 194 194 196 196 196 198 200 202 205 211 212 214 221 228 227 225 228 239 246 261 279 297 312 318 322 320 316 313 318 325 333 342 339 346 343 342 339 338 337 337 336 336
205 215 67 308 242 260 272 259 261 237 261 259 263 276 290 275 276 307 276 250 278 230 155 183 177 171 256 169 220 191 126 104 106 119 126 138 138 150 159 152 152 143 160 158 119 127 146 156 163 172 182 185 187 191 192 194 195 195 196 196 197 198 202 207 209 210 216 219 222 227 224 231 238 247 259 286 308 316 322 324 320 317 316 318 324 333 343 335 349 342 341 340 339 340 340 338 340
228 181 189 215 196 239 247 255 260 246 247 253 264 263 266 254 74 170 273 272 258 273 88 140 165 207 307 295 310 120 161 123 120 124 129 147 145 150 159 164 155 145 156 155 132 141 146 155 167 172 181 185 188 190 194 196 195 198 198 196 195 199 202 204 206 210 213 215 219 222 223 222 229 242 257 286 313 314 319 323 322 317 316 319 326 330 337 336 343 343 341 340 342 342 341 344 347
229 166 272 278 228 244 237 263 261 264 268 264 254 249 253 10 322 304 273 275 271 276 102 112 228 236 251 257 231 19 125 132 150 162 158 138 141 160 162 172 156 147 156 156 146 136 145 160 167 174 183 185 187 194 197 194 196 200 198 196 197 200 202 203 206 208 210 211 216 217 216 214 217 241 217 278 292 299 311 321 318 317 316 320 322 327 331 334 342 343 342 343 345 343 346 349 348
241 199 158 229 231 236 242 256 261 273 264 257 259 274 92 207 210 252 262 258 251 244 199 151 223 178 220 227 238 169 142 161 176 133 140 124 143 168 162 164 143 149 150 150 143 134 149 157 165 180 182 185 192 195 196 196 198 200 199 199 199 200 202 205 204 207 208 211 211 207 209 209 214 195 232 247 264 288 300 307 312 311 314 318 321 322 324 334 341 342 342 346 345 347 346 345 344
262 308 233 227 235 230 247 253 259 277 287 292 293 26 335 71 227 247 270 277 274 275 266 172 117 79 262 243 78 132 160 167 116 124 129 139 160 159 173 138 128 133 144 148 146 148 152 160 167 179 183 189 195 195 199 195 197 200 201 202 199 202 203 204 204 205 207 209 206 205 202 201 196 212 226 232 253 266 279 293 300 307 313 317 323 317 321 333 342 342 345 346 346 345 341 336 341
238 203 250 260 234 244 241 257 262 263 263 275 150 335 25 19 56 341 335 294 276 284 353 222 145 113 259 332 254 188 132 117 116 116 141 153 146 140 164 121 136 119 150 153 164 159 157 161 169 175 185 190 190 197 201 195 194 199 201 201 202 201 203 204 205 204 205 205 205 191 192 189 199 214 225 230 240 254 267 283 296 304 314 318 318 320 319 331 342 343 344 345 344 343 327 324 328
291 249 225 246 262 264 228 238 229 242 255 267 14 339 8 196 282 265 235 267 286 123 208 11 313 92 238 193 287 75 157 129 115 128 127 82 96 124 167 118 142 131 157 169 171 167 173 162 170 175 183 184 191 193 195 198 197 199 197 200 201 202 203 204 204 202 203 202 197 182 175 186 204 213 225 223 231 242 252 267 287 308 312 316 317 315 320 328 338 345 340 339 340 338 323 320 316
254 291 244 223 238 241 237 251 249 265 274 285 260 236 175 260 166 233 240 136 298 287 97 232 282 225 300 296 67 164 146 135 140 121 107 105 115 102 142 143 158 171 176 188 181 185 175 174 169 175 175 182 190 189 194 193 199 198 197 196 196 196 198 202 196 193 188 189 173 165 173 191 212 220 221 224 228 232 240 249 270 293 307 311 311 312 315 318 332 339 335 322 331 334 325 322 318
39 280 249 218 241 223 222 249 240 244 272 244 165 203 315 335 112 265 135 167 259 260 204 213 210 220 251 249 138 141 146 127 137 123 126 136 146 154 155 204 188 179 184 198 198 183 181 183 181 175 177 180 185 189 189 191 194 196 197 195 193 192 196 196 190 176 167 166 161 172 183 197 217 214 222 213 224 217 218 209 239 274 291 303 304 304 303 308 312 325 303 306 319 329 323 322 334
181 218 227 237 227 231 221 245 245 249 258 273 241 114 291 294 230 183 259 210 228 249 250 244 222 218 220 234 233 157 148 154 157 141 170 162 171 173 186 196 188 198 186 191 204 187 184 186 189 181 179 181 181 188 188 186 183 189 190 187 186 188 190 187 174 166 170 169 178 180 190 209 227 220 194 201 182 210 207 203 219 253 273 284 289 294 291 283 286 266 275 288 296 304 319 348 349
198 226 226 235 220 242 244 245 261 277 286 294 300 304 262 271 10 275 270 268 244 247 233 223 240 237 227 231 231 154 165 175 163 176 172 177 186 189 192 187 194 196 193 191 199 196 187 185 184 189 185 182 179 184 187 180 172 178 186 183 180 180 180 173 172 175 178 182 186 186 202 226 223 219 182 156 157 140 201 183 220 241 259 261 263 270 271 265 261 262 266 278 280 287 330 2 348
209 228 229 236 241 254 248 288 262 265 285 293 305 290 293 296 289 333 274 277 265 257 261 267 261 258 237 224 220 203 174 189 181 188 186 197 192 198 195 192 194 200 198 191 191 194 185 187 189 187 184 181 179 182 180 176 160 169 176 179 175 179 180 179 179 184 186 194 179 195 209 222 214 155 129 152 190 220 237 232 232 234 245 251 251 254 263 256 252 252 248 262 298 329 327 5 351
168 221 231 237 226 249 257 251 273 280 279 278 274 294 293 296 284 256 257 270 257 254 240 245 254 254 259 266 232 209 201 197 191 196 204 209 211 206 207 201 195 198 196 184 180 189 192 188 184 186 183 181 179 179 175 178 166 161 173 177 176 175 181 178 187 186 191 194 185 190 214 219 156 167 171 174 193 219 226 210 217 225 224 231 222 230 240 233 250 250 233 247 24 321 350 355 358
269 220 229 242 250 260 255 277 267 295 343 329 293 286 279 297 272 262 259 252 256 247 247 242 254 267 279 289 311 298 216 195 204 196 212 213 213 217 217 219 215 191 183 185 191 186 191 188 184 183 181 181 181 181 177 176 171 171 175 179 177 172 176 176 180 192 185 191 189 191 219 182 154 197 223 178 197 218 220 196 201 201 194 203 181 213 240 200 249 287 112 91 40 293 359 8 359
240 240 244 244 256 267 272 275 264 146 275 273 274 272 299 279 282 271 269 257 267 252 256 260 266 272 280 287 293 281 274 262 191 205 208 219 223 223 218 214 204 207 188 198 186 183 185 186 183 177 182 180 182 180 173 171 180 180 176 176 177 180 171 173 176 185 184 181 180 193 203 183 175 201 221 189 215 233 231 221 228 220 195 224 209 203 210 76 252 275 91 106 30 308 27 17 15
218 248 247 243 233 247 253 256 263 239 238 255 270 303 278 276 275 263 255 257 261 260 262 263 269 273 267 265 258 257 260 255 249 210 206 213 215 216 213 210 210 206 203 200 188 175 179 186 181 176 181 179 180 180 174 176 179 179 182 178 178 180 169 172 175 178 175 177 179 186 198 179 183 205 204 180 201 221 239 235 186 10 283 262 263 229 178 252 248 235 78 56 42 322 74 12 13
216 246 257 271 279 264 244 248 247 209 243 264 274 268 259 260 266 295 265 261 259 258 265 265 263 262 259 256 257 259 257 256 255 244 234 227 210 213 214 208 201 195 210 208 192 175 181 180 178 181 178 179 178 178 179 177 176 181 178 177 180 176 173 173 173 171 172 171 180 181 189 196 189 191 197 185 181 201 219 206 186 227 230 253 205 285 170 232 266 267 113 135 231 6 69 24 354
217 238 245 256 245 253 254 250 248 253 260 228 264 256 261 261 277 264 263 262 255 261 259 260 259 258 257 255 255 254 248 249 247 246 237 228 229 216 209 203 200 205 208 201 192 196 171 175 180 182 179 179 176 176 183 177 178 177 180 178 178 174 178 170 170 171 172 164 176 185 183 193 191 187 186 183 176 195 190 196 182 252 265 245 175 253 222 219 251 332 85 156 275 76 64 17 0
122 261 250 255 263 267 258 246 249 245 249 223 238 259 263 259 257 272 240 249 259 240 245 245 238 241 241 245 251 245 247 241 237 240 239 225 225 216 223 205 202 214 201 204 199 193 173 173 184 183 180 177 176 178 181 182 174 178 179 173 173 178 176 168 171 170 173 170 171 181 180 190 197 185 176 180 172 174 183 181 192 219 206 236 183 231 54 332 324 85 39 46 36 66 68 36 8
295 295 306 286 288 281 277 274 265 257 256 236 241 260 266 257 242 251 270 265 239 252 250 255 250 251 245 248 256 260 248 243 241 232 235 229 219 212 212 206 214 210 199 211 202 188 173 180 179 183 181 178 176 182 180 181 179 175 175 172 174 176 171 173 172 170 176 179 169 173 177 187 195 194 174 171 166 174 182 193 203 191 209 214 149 126 43 315 82 80 28 33 31 67 92 74 17
280 306 286 289 276 264 243 239 239 211 243 188 35 306 269 243 229 245 248 261 267 240 250 247 249 251 255 252 242 236 236 239 236 228 231 232 223 204 211 205 198 202 212 206 198 185 186 178 174 182 180 180 182 181 183 183 177 173 173 175 172 170 172 172 172 174 177 179 164 168 173 180 196 184 177 159 170 171 185 182 184 178 213 188 120 98 76 290 105 119 153 269 122 80 62 32 46
256 258 256 287 280 266 250 235 220 211 220 122 107 285 248 238 222 244 252 252 252 239 241 247 240 241 249 242 237 236 233 228 225 224 225 226 219 211 205 205 194 196 202 203 189 196 189 173 173 173 181 182 186 181 181 182 180 174 171 173 170 167 172 173 175 176 175 175 160 167 170 176 188 184 163 164 161 184 189 169 181 199 202 137 111 133 182 237 185 154 193 150 70 87 80 58 60
220 260 207 244 280 265 255 190 139 187 118 160 125 240 266 299 312 281 267 231 220 247 234 245 250 250 243 233 230 231 232 220 222 221 221 221 220 213 210 203 193 194 183 184 190 197 182 177 169 174 178 183 184 184 182 183 179 176 172 172 171 169 169 173 175 174 174 174 158 165 172 174 177 184 162 161 168 185 185 170 188 211 171 140 151 180 199 225 169 172 190 119 148 94 95 76 85
209 303 241 217 221 265 285 127 156 190 171 213 162 254 261 272 261 275 54 41 354 257 254 245 247 252 256 259 249 237 233 227 228 228 221 218 218 213 201 208 194 183 183 184 188 182 188 179 175 174 177 180 185 185 182 179 179 178 173 172 168 169 168 174 175 175 173 171 160 164 173 175 175 178 168 154 168 193 176 179 190 189 140 143 201 185 197 240 160 180 136 129 124 108 91 80 84
208 209 278 264 183 243 255 223 230 324 133 205 188 252 314 289 281 322 256 112 222 255 245 237 239 242 245 246 246 245 246 245 238 225 223 222 218 205 199 197 192 182 179 176 176 181 185 182 178 177 181 181 181 182 177 177 175 176 175 174 168 167 171 173 175 172 169 172 162 164 175 174 176 177 167 160 162 186 189 182 184 151 147 171 205 150 197 237 155 140 119 63 124 121 105 107 90
258 191 233 250 251 266 255 41 311 160 219 202 219 246 250 269 284 280 287 285 285 275 271 268 265 261 254 248 242 239 239 237 237 233 231 217 215 196 183 181 180 180 178 181 177 178 183 177 177 179 177 179 177 178 178 175 174 171 172 171 166 171 174 174 173 168 171 174 163 166 171 173 176 175 166 167 166 177 185 184 153 143 155 186 176 166 201 224 139 140 123 147 125 130 138 121 95
248 201 216 267 270 242 255 250 185 200 201 234 234 237 262 269 275 277 268 264 259 262 263 262 256 250 249 248 249 248 246 242 239 231 226 225 220 201 153 156 163 172 179 179 174 166 164 161 163 170 167 170 168 173 171 166 163 164 163 165 166 173 177 176 170 171 171 171 169 163 168 170 174 172 167 166 175 173 180 182 140 152 155 181 175 187 221 190 140 164 136 124 54 121 142 133 130
347 356 292 301 291 295 272 95 169 259 243 246 241 260 276 276 278 281 278 272 273 273 277 277 269 262 257 251 249 244 242 247 247 250 53 64 67 56 56 95 131 163 155 170 172 154 156 144 151 161 167 169 158 163 163 165 163 169 171 167 171 180 179 176 176 172 170 172 170 160 166 168 171 171 169 168 173 175 172 175 150 153 167 176 177 187 208 167 166 156 136 134 111 82 96 115 124
305 309 315 302 299 282 273 287 156 178 292 249 258 265 267 269 271 278 278 272 265 268 271 268 265 256 248 244 240 240 226 227 208 91 85 86 86 88 78 73 125 139 162 159 164 170 158 153 149 170 170 166 163 168 174 174 174 173 178 184 185 177 178 173 175 175 171 171 167 159 164 169 169 168 170 165 177 174 171 168 152 158 177 180 176 192 188 180 175 150 143 135 139 131 123 134 155
282 301 289 282 269 279 278 290 179 59 73 294 326 295 280 275 281 281 287 280 271 264 261 259 260 256 244 220 221 216 217 93 80 256 164 97 87 69 62 53 6 165 188 159 170 176 173 161 160 165 165 169 175 177 178 184 187 187 181 184 173 171 171 178 181 175 172 166 167 162 165 168 167 169 171 167 175 173 170 167 163 165 176 190 182 188 200 166 162 154 141 143 163 147 162 169 183
282 265 279 286 269 265 278 69 81 56 99 274 298 313 292 287 281 277 269 264 261 262 253 251 246 256 261 234 180 171 92 29 340 225 141 146 134 150 148 188 215 220 190 184 178 169 178 174 162 160 171 173 180 177 179 189 186 184 179 172 168 165 172 169 164 166 160 166 171 165 165 171 166 170 170 169 173 176 173 164 171 164 175 182 181 192 186 170 168 169 160 157 174 172 148 181 184
238 253 249 246 266 295 301 348 11 211 176 285 321 305 289 286 278 270 267 255 251 246 242 250 244 227 216 47 77 79 62 44 275 155 171 156 171 175 182 189 193 203 195 175 178 180 177 180 168 164 173 174 178 183 181 187 179 168 158 147 148 155 164 157 151 155 162 159 174 173 171 170 166 169 171 171 173 176 173 172 167 164 178 182 175 179 176 180 174 176 171 169 156 168 158 196 194
220 222 248 254 264 273 201 311 323 304 245 225 306 288 282 264 276 301 278 281 234 234 239 257 282 328 127 86 6 160 178 186 231 292 126 156 169 179 188 184 164 173 204 182 178 181 175 182 177 170 170 177 179 179 177 173 160 159 149 137 132 121 113 148 156 182 184 179 167 178 177 170 169 170 171 174 173 177 175 173 168 171 170 186 176 173 177 185 184 184 180 181 172 164 180 159 225
268 222 216 235 294 309 329 339 342 345 334 47 29 350 288 325 327 305 291 301 253 235 207 245 263 267 96 153 222 191 194 194 189 217 224 175 206 142 135 140 157 191 195 198 168 180 160 175 172 171 163 170 173 176 173 168 172 169 162 162 167 165 169 173 186 189 184 185 185 167 166 173 169 169 173 175 177 173 177 178 171 168 172 181 184 177 175 177 189 186 192 189 185 175 164 149 192
313 275 31 18 290 324 323 292 343 311 283 300 69 67 282 294 286 286 283 287 254 231 204 229 35 93 126 190 187 164 189 211 226 217 217 196 218 171 180 165 170 188 193 139 114 154 143 159 160 165 158 160 161 166 171 166 174 180 182 182 181 180 181 196 183 165 177 175 153 171 173 172 173 172 176 175 178 178 175 177 176 173 173 177 181 177 181 185 189 191 186 191 197 190 160 170 177
250 308 326 350 266 186 240 287 261 248 312 285 165 161 243 301 290 273 280 282 257 251 122 70 44 92 177 184 161 166 176 175 170 229 250 214 163 166 170 145 155 125 113 121 144 179 168 174 164 166 162 159 168 166 178 174 177 182 183 184 188 190 190 182 175 169 156 156 165 170 170 178 176 177 174 177 178 177 175 178 177 177 175 182 177 189 188 184 178 189 185 190 199 191 196 174 181
212 256 304 331 3 353 326 126 279 262 334 288 228 151 273 258 276 282 288 293 269 183 125 126 137 191 190 180 184 181 160 135 136 305 315 338 14 48 74 99 104 115 130 144 158 175 181 181 173 166 177 161 169 166 177 188 178 185 184 183 188 198 178 168 159 155 161 163 169 168 173 179 179 181 177 175 178 178 176 177 178 181 182 186 181 189 192 183 181 180 187 189 200 205 193 196 172
114 247 258 273 291 335 248 304 239 291 217 268 252 178 207 281 273 285 301 263 260 146 138 152 165 183 190 179 125 133 182 167 126 80 37 24 59 81 95 106 113 110 121 128 138 146 168 167 156 161 180 163 161 163 175 191 187 182 184 191 188 190 178 166 163 168 167 166 174 176 175 176 180 182 183 178 178 179 178 175 178 185 188 189 185 188 192 190 187 184 189 191 194 203 204 192 202
226 257 245 220 208 190 308 154 226 342 256 250 244 186 157 304 257 249 290 299 302 118 143 170 171 166 156 138 133 102 70 50 43 46 59 48 116 105 109 138 122 112 128 151 136 150 159 157 167 164 189 171 160 173 174 188 195 191 189 191 191 189 184 167 165 172 167 171 179 180 178 179 178 185 181 186 182 179 180 178 181 187 187 189 187 185 194 195 196 188 188 188 193 199 208 203 197
220 209 237 284 281 131 144 226 87 194 269 233 318 158 152 177 286 259 202 145 45 357 28 169 167 154 133 131 110 98 79 56 42 53 35 15 102 156 172 143 143 153 156 144 154 156 161 174 170 175 194 184 169 176 180 190 193 204 194 188 193 193 183 180 177 178 178 179 179 178 176 167 180 183 186 185 188 184 179 185 183 181 189 189 194 190 191 194 192 188 186 189 198 202 208 205 199
97 289 324 88 263 48 338 52 311 217 225 286 74 92 347 246 239 275 301 294 297 264 247 247 146 145 110 77 78 90 102 76 61 46 28 15 78 99 123 146 148 167 172 171 172 174 174 177 180 180 198 194 181 175 183 191 192 202 199 192 192 192 193 191 182 179 179 178 178 174 173 181 173 179 192 191 193 186 181 183 186 187 191 195 191 185 191 186 185 187 194 194 194 197 202 203 203
166 161 159 123 197 225 260 223 220 206 319 264 182 244 257 263 284 246 252 268 247 95 227 141 122 112 110 120 86 61 123 98 92 91 48 85 64 79 135 161 161 172 170 175 175 174 186 186 187 184 197 190 185 181 186 193 198 198 200 197 192 189 200 195 192 181 182 179 177 181 183 185 184 189 187 195 189 185 188 191 189 193 191 189 189 188 185 188 184 187 191 197 200 202 195 205 210
208 204 170 193 197 208 236 206 211 238 187 209 298 39 234 141 243 203 226 262 275 263 213 153 166 166 143 156 172 154 94 122 141 155 152 138 156 135 197 169 166 177 174 180 179 196 180 193 194 195 196 191 184 184 185 194 201 201 201 202 199 195 198 199 198 183 178 179 184 184 190 188 189 190 190 193 181 187 191 188 190 190 189 188 188 187 187 187 189 186 190 197 201 196 199 198 209
205 203 69 56 234 94 206 220 67 300 354 322 238 207 224 206 280 302 290 284 274 75 36 189 113 106 117 98 109 127 139 151 162 168 151 153 156 185 203 197 197 195 194 183 194 195 197 200 197 199 200 191 184 183 191 193 199 196 198 198 204 201 200 200 203 195 188 183 185 187 190 190 191 184 184 176 189 185 189 191 190 193 189 188 189 190 186 186 188 189 191 189 200 192 198 199 205
264 85 202 209 325 93 310 355 41 70 83 255 195 282 277 273 285 259 260 7 162 22 43 84 123 130 98 144 157 178 178 168 178 194 186 167 164 175 192 194 198 196 203 203 203 195 194 199 196 201 204 200 188 189 190 191 195 193 202 198 198 203 203 202 203 202 195 188 185 189 188 190 183 180 181 181 182 186 188 189 190 193 190 190 189 189 188 188 186 189 192 193 197 195 193 201 198
72 185 251 305 261 74 134 229 313 225 214 259 185 240 277 342 302 328 90 174 239 180 196 204 179 151 156 201 196 195 184 191 192 204 202 181 172 183 195 208 201 199 200 202 208 194 193 194 193 197 200 207 208 188 192 192 195 200 200 201 204 206 210 217 213 208 203 192 194 189 184 184 190 186 180 180 177 181 186 188 190 193 192 188 190 189 189 190 186 192 194 198 196 187 196 200 202
121 206 136 118 189 211 246 119 276 248 256 269 260 252 255 185 236 263 265 237 225 215 185 180 177 178 200 196 200 195 177 176 214 225 215 192 181 195 203 205 213 205 195 190 194 183 184 198 207 196 199 201 201 196 193 197 194 200 199 199 199 205 209 218 228 223 208 205 201 194 192 192 183 181 175 176 179 182 183 188 190 192 190 192 191 192 188 191 189 195 196 200 196 190 194 202 203
335 354 319 214 61 250 142 203 221 88 264 9 291 316 269 186 211 207 244 247 263 200 171 189 194 194 191 192 189 183 187 204 222 221 232 84 206 209 207 206 203 205 201 197 190 184 191 202 204 214 215 202 195 195 189 194 198 193 197 194 199 195 200 203 209 211 220 215 208 198 195 189 192 185 184 177 181 183 185 187 192 191 192 192 192 194 190 192 193 200 196 200 201 195 200 204 206
204 155 272 356 232 212 108 305 195 176 203 219 310 300 257 233 204 193 218 247 300 305 241 206 187 182 187 190 179 182 191 205 222 239 317 290 269 243 220 211 213 208 197 185 186 195 205 202 207 204 201 209 203 204 190 197 188 195 191 197 197 192 198 196 200 204 213 217 212 204 202 197 182 197 183 184 185 186 186 189 189 192 192 192 193 195 193 191 197 201 201 202 200 201 205 210 204
182 171 204 187 144 175 153 273 76 158 116 249 201 264 281 227 264 238 243 243 107 296 30 300 197 168 177 175 182 176 191 216 230 273 304 299 283 270 271 233 204 206 225 225 226 213 216 211 210 207 209 210 208 210 200 196 192 188 192 193 193 190 192 192 198 204 210 212 212 208 203 194 201 201 188 190 189 186 186 184 187 193 194 194 196 196 193 192 200 204 207 203 203 203 209 212 205